Regional Weather Roundup
Issued by NWS

Home | Current Version | Previous Version | Text Only | Print | Product List | Glossary On
Versions: 1 2 3 4 5 6 7 8 9 10 11 12 13 14 15 16 17 18 19 20 21 22 23 24 25 26 27
000
ASUS45 KTFX 220410
RWRMT
MONTANA REGIONAL WEATHER ROUNDUP
NATIONAL WEATHER SERVICE GREAT FALLS MT
900 PM MST TUE FEB 21 2017

NOTE: "FAIR" INDICATES FEW OR NO CLOUDS BELOW 12000 FEET WITH NO
SIGNIFICANT WEATHER AND/OR OBSTRUCTIONS TO VISIBILITY.

MTZ001>007-043-220500-
WEST OF THE DIVIDE

CITY           SKY/WX    TMP DP  RH WIND       PRES   REMARKS
KALISPELL      CLOUDY    33  32  96 CALM      29.78R FOG
MISSOULA       CLOUDY    36  34  92 N12       29.84R WCI  28
BUTTE          CLOUDY    36  19  50 W8        29.76R WCI  30
MULLAN PASS    SNOW      24  24 100 VRB3      29.77R VSB 1/2
ANACONDA         N/A     34  27  75 SW7       29.78R WCI  28
DEER LODGE       N/A     36  30  80 SW3       29.78R
EUREKA           N/A     30  30 100 CALM      29.80R
HAMILTON         N/A     36  30  80 S9          N/A  WCI  29
LIBBY            N/A     30  30 100 CALM      29.81R VSB 1/2
RONAN            N/A     34  32  92 W1        29.86R
$$

MTZ008-052>055-220500-
SOUTHWEST MONTANA

CITY           SKY/WX    TMP DP  RH WIND       PRES   REMARKS
BOZEMAN        PTCLDY    40  19  43 SW10      29.76R
DILLON         CLOUDY    36  18  48 S14G20    29.80R WCI  27
W YELLOWSTONE  CLOUDY    28  27  93 SW13G21   29.85R WCI  18
ENNIS          CLEAR     32  18  55 S10       29.86R WCI  24
THREE FORKS      N/A     37  37 100 CALM      29.77R
$$

MTZ009-010-012-014-046-048-049-054-220500-
EAST SLOPES AND CENTRAL MONTANA

CITY           SKY/WX    TMP DP  RH WIND       PRES   REMARKS
CUT BANK       LGT SNOW  31  30  96 N8        29.71R FOG     WCI  23
GREAT FALLS    FOG       34  34 100 E3        29.67R VSB 1/4
MALMSTROM AFB  CLOUDY    33  34 100 NE5       29.68R
HELENA         CLOUDY    42  30  62 SW18G26   29.72R
AUGUSTA        SNOW      32  33 100 N20       29.67R VSB 3/16WCI  20
BOWMANS CRNR   MOCLDY    35  29  79 SW14      29.65R WCI  25
CHOTEAU        FOG       32  32 100 N10       29.72R VSB 3/4 WCI  24
POWER          FOG       34  34  99 N3        29.68R VSB 5/8
RAYNESFORD     FOG       34  34 100 CALM      29.66S VSB 3/8
ULM            MOCLDY    38  32  78 MISG      29.67R
$$

MTZ011-013-016-021-045-047-050-051-220500-
NORTH CENTRAL MONTANA

CITY           SKY/WX    TMP DP  RH WIND       PRES   REMARKS
HAVRE          CLOUDY    35  34  96 NE5       29.71R
LEWISTOWN      LGT RAIN  36  32  85 VRB3      29.68R
N BAR RANCH    CLOUDY    34  28  80 NW6       29.68S WCI  29
CHINOOK          N/A     36  36 100 E5        29.72R
DENTON         FOG       34  33  98 S10G23    29.63F VSB 7/8 WCI  26
FORT BENTON      N/A     36  34  93 N5        29.70R
GEYSER         MOCLDY    36  33  90 SW9       29.65S WCI  29
GRASS RANGE    MOCLDY    34  31  90 NW6       29.66R WCI  29
JUDITH GAP     MOCLDY    37  23  56 NW9       29.68R WCI  31
ROY            LGT RAIN  34  33  98 MISG      29.68R
STANFORD       MOCLDY    36  29  74 SW15      29.66S WCI  27
WINIFRED       LGT RAIN  33  33  99 SE9       29.66F WCI  26
$$

MTZ017>020-022>027-061-062-220500-
NORTHEAST MONTANA

CITY           SKY/WX    TMP DP  RH WIND       PRES   REMARKS
GLASGOW        LGT SNOW  34  32  92 VRB5      29.72R FOG
JORDAN           N/A     35  33  92 E3        29.67F
SIDNEY         CLOUDY    38  36  92 N5        29.69S
WOLF POINT     CLOUDY    36  33  89 CALM      29.73R
PLENTYWOOD       N/A     34  32  93 NE15G21   29.69R WCI  24
POPLAR           N/A     36  32  87 N5        29.73R
$$

MTZ028>42-056>058-220500-
SOUTHCENTRAL AND SOUTHEAST MONTANA

CITY           SKY/WX    TMP DP  RH WIND       PRES   REMARKS
BAKER          CLOUDY    38  34  85 CALM      29.66R
BILLINGS       CLOUDY    49  22  34 SW16      29.69R
LIVINGSTON     CLEAR     41  22  46 SW18G25   29.72R
MILES CITY     CLOUDY    41  36  82 W5        29.65R
BIG TIMBER     CLEAR     41  18  38 W16       29.74R
FORSYTH          N/A     45  37  76 S3        29.67R
HARLOWTON        N/A     38  20  49 W12       29.67R WCI  30
LAUREL           N/A     44  26  49 S6        29.72R
$$

REGIONAL REPORTS...DAKOTAS

CITY           SKY/WX    TMP DP  RH WIND       PRES   REMARKS
WILLISTON      CLOUDY    35  32  88 N9        29.71R FOG     WCI  28
MINOT          CLOUDY    33  31  92 W6        29.69R WCI  28
DICKINSON      PTCLDY    36  33  89 NE6       29.63S WCI  31
BEACH            N/A    N/A N/A N/A MISG        N/A
CROSBY         FOG       32  32 100 N3        29.74R VSB 1/4
TIOGA          MIX PCPN  32  32 100 N7        29.69S WCI  26
WATFORD CITY   CLOUDY    36  36 100 W5        29.70R
BISMARCK       PTCLDY    38  35  89 NW3       29.68F
GRAND FORKS    CLOUDY    33  30  88 CALM      29.69S FOG
FARGO          MOCLDY    37  36  96 W6        29.71R
BUFFALO SD       N/A     41  36  82 SW5       29.63R
RAPID CITY     MOCLDY    46  35  65 SW3       29.75R
$$

REGIONAL REPORTS...WYOMING/IDAHO/WASHINGTON

CITY           SKY/WX    TMP DP  RH WIND       PRES   REMARKS
GILLETTE       CLOUDY    49  33  54 S9        29.70F
SHERIDAN       CLOUDY    48  25  40 SW29G44   29.67F
BUFFALO WY     CLOUDY    48  18  30 SE5       29.71F
CODY           CLOUDY    40  24  53 SW9G16    29.81R
YELLOWSTONE LA   N/A     25  22  88 MISG      29.85S
IDAHO FALLS    CLOUDY    35  30  82 SW20      29.95R WCI  24
SALMON         CLOUDY    39  25  56 S17       29.85R WCI  30
BOISE          MOCLDY    43  29  57 W13       30.01S
SPOKANE        DRZL/FOG  32  32 100 SW12      29.92R VSB 3/4 WCI  23
$$

REGIONAL REPORTS...ALBERTA

CITY           SKY/WX    TMP DP  RH WIND       PRES   REMARKS
EDMONTON       CLOUDY    28  25  86 N6        29.78R WCI  22
CALGARY        PTCLDY    28  25  86 SW3       29.70R FOG
LETHBRIDGE     CLOUDY    32  30  93 W2        29.72S FOG
MEDICINE HAT   CLOUDY    34  32  93 E10       29.74S FOG     WCI  26
MILK RIVER       N/A     32  32 100 N2          N/A
ONEFOUR          N/A     32  32 100 N3          N/A
$$

REGIONAL REPORTS...SASKATCHEWAN

CITY           SKY/WX    TMP DP  RH WIND       PRES   REMARKS
SWIFT CURRENT  CLOUDY    30  27  86 NE5       29.73S
REGINA         CLOUDY    32  25  74 N9        29.75R WCI  24
SASKATOON      CLOUDY    32  23  69 W3        29.78S
VAL MARIE        N/A     30  30 100 NE10        N/A  WCI  21
ASSINIBOIA       N/A     30  28  93 N3          N/A
$$




USA.gov is the U.S. government's official web portal to all federal, state and local government web resources and services.